ECMWFNIL_925_spd_072.txt.gz
Wind_Speed
14 15 15 15 15 15 17 18 18 18 16 15 16 16 16 17 18 19 18 17 17 18 19 19 19 19 20 20 21 21 23 25 25 25 25 26 27 27 29 30 31 31
15 15 15 16 16 16 17 18 19 19 18 17 17 17 18 18 19 20 20 21 21 22 23 23 22 20 20 21 22 22 23 25 25 25 25 26 28 27 28 30 31 31
17 16 16 17 18 18 18 18 18 18 18 18 17 18 19 19 19 20 22 24 25 25 25 24 22 21 21 21 22 22 23 24 25 25 24 26 28 27 26 28 29 29
19 18 17 18 19 20 21 21 21 20 19 19 18 18 19 20 20 21 22 24 26 26 25 24 23 23 21 20 20 20 21 23 24 24 24 26 27 26 26 27 27 27
21 20 19 19 19 20 23 25 25 24 22 20 20 19 20 20 20 21 20 21 26 27 25 25 25 25 23 22 21 19 19 20 21 23 23 25 26 25 26 26 27 26
22 22 21 20 20 21 23 25 26 27 25 23 22 21 20 21 20 20 18 19 25 29 27 27 27 27 27 25 24 22 20 19 19 20 21 23 23 24 24 25 26 25
23 23 23 22 21 21 22 25 26 27 26 26 26 25 25 24 22 20 17 18 25 30 29 29 30 30 30 29 28 26 24 22 20 19 20 21 21 22 22 22 24 24
23 23 23 23 23 22 22 24 26 27 27 27 28 27 28 30 27 22 18 17 26 33 32 31 32 32 32 31 30 29 26 24 24 22 21 21 20 20 20 19 19 20
23 23 23 23 23 23 21 22 24 26 27 27 27 26 27 29 27 25 22 19 27 37 37 34 34 33 33 33 31 29 27 25 25 24 22 21 20 20 19 18 17 18
22 22 22 22 22 22 21 21 22 23 25 27 28 28 28 28 25 23 22 21 26 35 37 35 35 34 35 36 32 30 28 26 25 24 23 22 20 19 19 18 18 19
22 22 22 22 21 22 21 22 22 22 22 25 27 29 29 30 29 25 22 20 23 29 33 35 37 37 37 38 35 31 28 26 25 24 23 22 20 18 18 17 17 19
25 24 24 24 23 23 22 22 23 22 22 22 25 27 29 30 30 28 24 20 20 24 29 34 38 39 39 40 37 34 30 27 25 24 22 22 21 19 18 17 16 18
26 25 25 25 24 24 25 25 25 25 23 22 22 25 27 29 29 28 26 22 20 23 29 34 38 41 41 41 40 36 32 28 27 25 24 23 23 21 19 17 17 17
24 25 24 23 23 23 25 26 27 28 26 24 23 23 25 26 28 28 27 24 23 26 30 34 38 41 43 43 42 38 32 28 27 27 27 27 26 24 22 21 19 16
22 24 25 24 22 22 23 25 26 28 28 27 25 24 24 25 27 28 28 27 27 29 31 35 38 40 43 43 42 39 34 29 27 27 28 29 27 26 25 23 21 18
25 25 26 27 25 22 21 24 26 26 27 27 26 25 24 26 27 28 29 29 29 30 32 35 38 40 42 42 41 39 35 31 28 27 27 27 26 26 26 25 23 20
28 27 27 27 28 25 22 22 24 26 26 26 26 25 24 25 28 29 30 30 29 31 32 33 37 39 41 42 42 40 37 33 30 28 27 27 26 27 28 27 26 24
28 28 28 27 28 28 26 22 22 25 27 26 26 27 25 25 27 28 29 29 29 30 31 33 37 39 40 41 42 41 39 35 32 29 29 29 29 29 28 28 29 28
26 28 29 28 27 27 27 25 23 23 25 26 25 25 26 27 27 28 28 29 29 30 30 32 35 39 40 40 40 41 39 37 34 29 28 30 30 29 28 28 28 30
25 27 29 29 27 26 26 26 25 24 24 25 24 23 24 26 27 27 28 29 29 29 29 31 33 37 39 39 39 39 38 37 34 30 29 32 31 30 30 29 27 28
23 25 27 28 28 27 27 26 26 25 25 25 25 23 23 25 26 27 27 28 29 29 29 30 32 34 36 38 38 38 36 36 34 31 31 33 32 32 32 30 27 27
21 24 25 26 27 27 27 26 27 27 27 25 25 25 25 27 27 27 27 27 28 29 29 30 32 33 34 36 38 38 37 36 34 32 31 32 33 33 32 31 29 28
20 22 24 25 25 25 25 25 26 27 27 26 25 25 26 28 29 29 29 29 29 29 29 29 31 33 33 33 35 37 37 36 34 32 30 30 31 32 32 31 29 27
18 20 23 24 23 23 23 23 24 25 26 25 24 23 23 25 28 29 30 31 31 30 30 29 30 33 32 31 33 35 36 35 34 33 30 28 29 31 32 32 31 28
16 18 21 23 22 22 21 21 21 22 23 24 24 24 22 22 25 28 30 32 32 31 30 30 30 33 33 31 30 33 35 35 34 33 31 28 28 29 31 32 33 32
16 16 19 21 22 21 20 20 20 20 22 24 24 24 24 23 24 27 28 31 32 32 31 31 31 33 33 30 29 30 33 34 34 32 31 28 26 26 28 31 33 33

ECMWFNIL_925_spd_075.txt.gz
Wind_Speed
15 14 14 13 12 12 11 12 13 12 12 12 12 13 12 12 13 13 15 18 18 18 18 19 19 19 19 19 18 18 17 18 20 21 23 24 25 26 27 28 28 29
17 17 16 16 15 15 15 14 14 13 13 13 12 12 12 12 12 12 15 19 18 18 18 18 18 19 20 20 21 20 20 20 19 20 21 23 25 27 27 28 28 29
18 18 19 19 19 19 19 18 18 17 16 15 14 14 13 13 12 12 17 20 19 19 19 19 19 19 20 21 22 22 22 22 22 21 22 22 24 25 27 28 28 29
17 18 20 20 21 21 22 22 22 21 21 20 18 17 15 14 13 14 19 22 22 23 23 22 22 23 23 23 23 23 23 23 23 23 24 23 22 23 24 26 28 29
18 19 20 21 21 23 24 24 24 23 23 22 22 20 18 17 16 17 22 25 26 26 26 26 26 26 26 26 25 24 24 23 23 24 25 25 24 23 23 25 27 28
20 20 21 21 21 23 25 26 25 24 24 22 22 22 20 19 18 20 24 27 28 29 29 29 29 28 28 28 26 25 24 24 23 23 24 25 25 24 24 24 25 26
20 20 21 21 21 23 25 26 26 26 25 24 24 24 22 20 20 20 23 26 29 31 32 32 32 31 31 31 29 26 25 25 25 25 25 26 26 25 25 25 25 25
19 19 20 20 21 21 22 24 25 26 26 25 26 26 24 22 21 20 21 24 28 31 32 33 33 34 33 33 32 30 28 27 27 28 28 27 27 28 27 28 27 25
17 18 18 19 20 20 20 20 22 24 25 26 27 26 25 23 22 21 22 25 28 31 32 33 34 35 34 34 33 31 30 29 28 28 29 29 29 30 29 30 30 27
17 17 17 18 19 19 18 17 19 22 25 26 27 27 27 26 24 23 24 26 28 30 32 33 34 35 35 35 33 31 31 31 28 27 28 29 29 30 30 30 29 27
20 20 21 21 20 19 17 16 17 19 21 23 25 26 27 27 26 24 25 26 27 28 30 32 33 34 35 36 35 32 30 29 28 27 28 29 29 30 30 28 27 26
21 21 22 22 22 21 20 18 17 18 19 21 23 24 25 26 25 24 24 25 26 27 29 32 33 34 36 37 36 33 30 29 28 27 28 28 28 28 27 25 25 26
17 18 19 20 21 22 22 20 20 20 20 21 23 25 25 25 25 24 24 24 25 27 29 32 34 35 36 37 37 35 32 30 30 28 28 28 27 27 27 27 27 27
16 16 17 18 19 20 21 22 21 21 21 22 23 25 25 25 24 24 24 25 26 27 29 31 35 36 37 37 37 35 33 31 30 29 29 29 29 30 30 29 28 27
17 16 17 18 20 20 20 21 22 22 21 22 23 24 24 25 24 24 25 26 27 28 28 31 34 36 37 36 35 34 33 31 30 30 29 29 30 32 33 31 30 29
19 17 16 17 18 19 19 19 20 20 20 21 22 22 23 24 24 25 26 26 27 28 28 30 33 35 36 35 34 33 32 31 30 29 29 30 29 30 33 33 32 31
21 19 17 16 17 17 18 18 18 18 19 21 21 22 21 22 24 25 26 26 26 27 27 28 31 33 34 36 36 34 32 30 29 28 29 30 30 29 32 33 32 32
21 20 20 18 17 17 17 18 19 19 21 22 22 22 22 23 24 24 25 25 25 26 26 27 30 32 33 35 36 36 34 31 29 28 27 28 30 31 33 33 32 31
22 22 22 21 20 19 18 18 20 21 23 24 24 25 25 25 25 25 25 25 25 25 26 26 29 31 31 34 36 36 36 34 32 29 26 26 29 30 31 33 32 30
23 23 24 23 23 22 21 20 21 21 22 24 25 26 27 27 27 27 26 25 25 25 26 27 29 30 30 32 35 37 37 35 34 32 28 26 28 29 30 32 30 29
22 22 22 23 23 23 23 22 20 19 20 21 23 26 27 27 28 27 27 26 25 26 27 28 29 29 30 31 33 36 37 36 34 33 31 29 29 29 30 31 29 27
20 20 20 20 21 21 22 21 20 20 20 20 22 25 26 28 28 28 27 27 26 26 27 29 29 30 30 31 33 35 37 36 35 34 33 32 30 29 30 31 29 27
18 18 18 18 18 19 20 20 21 21 21 21 23 25 27 28 28 28 27 26 27 27 27 28 30 30 30 30 32 34 36 36 35 34 33 32 30 29 30 31 29 27
16 17 17 17 18 18 19 20 21 21 21 22 23 25 27 27 28 29 28 27 27 27 28 28 29 30 30 30 30 32 34 35 34 33 33 32 30 30 31 32 31 29
16 16 17 17 17 18 18 19 20 20 21 22 24 26 27 27 28 29 30 29 28 28 28 29 30 30 30 29 29 30 32 34 33 33 33 32 30 29 31 33 33 33
15 15 16 17 17 17 17 18 19 20 21 23 25 27 28 28 28 29 29 29 28 28 28 29 30 31 31 29 27 28 30 33 33 33 33 32 29 28 30 33 34 35

ECMWFNIL_925_spd_078.txt.gz
Wind_Speed
17 17 17 17 16 15 15 14 14 14 13 14 14 14 15 16 17 18 20 20 20 21 21 22 22 23 23 22 23 23 22 22 22 22 23 22 22 22 21 20 20 22
19 20 20 20 20 18 17 17 16 16 15 14 13 12 12 14 16 18 20 20 21 22 23 23 24 24 24 24 24 23 23 22 21 21 22 21 21 21 21 21 20 20
21 21 22 22 21 20 19 19 19 18 17 16 16 14 14 14 15 18 21 22 23 23 24 24 24 24 25 24 24 23 22 22 22 22 22 21 21 21 21 21 21 22
21 22 22 23 23 22 22 21 22 21 19 18 17 16 15 15 16 19 21 23 24 24 24 25 25 26 26 26 25 24 24 24 24 24 23 23 23 23 23 23 23 23
21 21 22 22 23 23 23 24 24 23 21 20 18 17 17 17 18 21 23 24 25 25 25 26 27 27 28 28 28 27 27 27 27 27 26 26 26 25 26 27 25 25
20 21 21 21 22 23 24 25 24 23 23 21 20 19 19 19 21 22 24 25 26 27 27 28 29 30 31 30 29 29 29 29 28 28 27 27 28 27 28 29 28 28
20 20 19 20 21 24 25 26 26 25 24 23 22 22 22 23 23 24 25 26 27 29 30 31 32 32 33 32 30 28 28 28 28 28 27 28 29 30 29 30 29 28
18 17 17 18 20 24 25 26 26 26 25 25 25 24 24 24 24 25 26 27 29 31 31 32 33 34 34 34 31 29 29 29 29 29 28 27 28 29 28 27 27 26
18 18 18 18 20 22 24 25 25 26 26 26 27 26 25 25 25 26 27 28 30 32 33 34 35 35 35 35 33 29 28 29 29 28 28 26 25 26 26 26 26 25
21 20 20 21 22 22 23 24 25 26 26 26 26 26 26 26 26 26 28 29 30 31 33 34 36 37 37 37 35 32 30 30 30 28 26 24 24 25 26 25 25 25
24 23 23 23 23 23 23 24 25 26 26 26 25 25 26 26 26 27 28 29 29 29 32 34 35 37 38 38 36 34 32 30 30 28 25 23 23 24 25 25 24 24
23 24 24 23 23 23 23 23 24 24 25 25 24 24 25 25 25 26 27 28 28 28 30 33 35 36 38 39 37 35 33 31 30 28 26 24 24 24 25 25 24 24
22 23 22 22 22 22 22 22 22 22 23 23 23 23 23 24 24 25 25 27 28 28 29 31 34 36 38 39 39 36 34 33 31 29 27 26 26 26 25 25 25 25
21 21 20 20 19 19 20 21 21 20 20 20 20 20 21 21 22 22 23 24 26 27 28 30 33 36 38 39 38 37 35 34 33 31 28 25 26 28 28 28 27 26
19 19 18 17 16 17 18 18 18 18 18 18 19 20 20 20 20 21 22 24 25 26 28 30 32 34 36 37 36 36 35 34 34 33 30 27 25 27 30 29 29 28
16 16 16 16 17 17 18 18 19 20 21 22 22 22 21 20 20 20 22 23 25 26 27 29 31 32 33 35 35 35 34 34 34 34 32 29 26 27 29 29 28 29
15 15 15 16 17 18 19 21 23 24 25 25 24 24 23 21 21 21 22 23 24 25 27 28 30 31 32 34 35 35 35 34 34 34 33 31 28 27 28 29 29 29
17 17 17 17 18 19 20 23 24 25 26 25 24 24 23 23 22 22 22 23 24 25 26 27 28 29 31 33 34 35 36 35 35 35 34 33 30 27 26 28 29 29
21 20 19 19 18 18 20 22 24 24 24 24 24 23 23 23 23 22 22 23 24 25 26 26 27 28 30 32 33 34 36 37 36 35 35 34 33 30 27 28 28 28
22 22 21 19 18 18 19 21 22 23 23 24 24 24 24 23 23 23 23 23 24 25 25 26 26 27 28 30 32 34 36 37 37 37 36 36 35 33 30 29 28 27
21 21 20 19 18 18 19 20 21 22 23 24 25 25 25 24 23 23 23 24 24 24 25 25 26 26 27 28 31 34 36 37 37 37 38 37 36 35 32 30 28 26
19 20 20 19 19 19 19 19 20 22 23 24 25 26 26 25 24 23 23 24 24 25 26 26 26 26 26 28 31 34 35 37 38 38 38 38 37 35 33 30 27 26
17 18 18 18 18 18 18 18 20 22 23 24 25 26 27 27 25 24 23 23 25 26 27 27 27 27 26 27 30 33 35 36 37 38 38 38 37 35 33 30 27 26
16 16 17 17 17 17 17 18 20 22 23 24 25 26 27 27 26 24 23 23 25 27 28 27 27 27 26 26 28 31 33 35 35 36 37 37 36 34 31 29 28 27
14 15 15 15 15 16 16 17 19 20 22 23 24 25 26 26 26 26 25 23 24 25 27 27 28 28 27 27 27 29 32 33 34 35 35 34 33 31 28 28 28 29
13 13 13 13 14 14 15 16 18 19 21 23 23 23 24 26 27 27 27 25 24 24 25 26 28 29 29 28 27 27 29 31 33 34 33 32 31 29 27 28 31 33

ECMWFNIL_925_spd_081.txt.gz
Wind_Speed
15 13 12 11 11 11 10 10 10 9 9 9 10 11 11 14 17 20 21 21 22 22 23 23 23 23 23 21 17 12 11 12 12 12 13 14 14 15 15 15 15 15
18 16 15 15 14 14 13 12 11 11 11 10 10 10 12 17 20 21 22 22 23 23 23 23 24 25 25 20 14 12 12 12 13 13 14 15 15 15 16 16 16 16
20 20 20 19 19 19 18 17 14 12 11 11 11 11 14 19 22 23 23 24 25 25 26 26 26 27 26 20 14 13 14 14 15 15 14 14 14 14 15 15 15 16
19 20 20 19 19 19 20 19 17 14 13 13 14 15 18 21 23 24 25 26 27 28 29 29 29 28 28 23 17 16 16 16 16 17 16 15 15 15 15 15 16 18
16 18 18 18 19 19 20 20 18 16 14 14 17 20 22 23 23 24 26 27 29 30 32 33 32 30 29 26 21 18 17 17 18 19 19 17 17 17 17 17 18 19
15 16 16 17 19 20 21 19 18 18 16 15 18 22 23 23 24 25 26 28 30 32 33 34 34 33 30 27 23 20 18 18 19 20 20 18 17 18 18 19 19 20
15 16 16 18 19 20 20 20 20 20 19 18 20 21 22 22 23 24 24 25 27 30 32 33 34 34 32 27 23 22 19 18 20 20 20 20 19 19 19 19 19 19
16 17 18 19 20 20 20 20 20 20 21 21 21 21 21 21 21 22 21 21 22 24 27 30 31 32 31 27 24 23 21 19 20 20 21 21 20 20 21 20 20 20
17 18 18 20 20 20 20 19 19 19 21 21 20 20 21 21 21 21 19 18 19 20 21 24 26 29 30 28 26 25 23 21 21 20 20 20 20 21 22 21 21 21
18 18 18 19 19 19 19 18 17 17 18 19 19 19 20 20 21 21 18 17 18 19 19 20 22 26 28 29 27 26 24 23 22 20 19 19 19 20 21 22 22 22
18 18 18 18 18 18 17 16 16 16 16 17 17 18 19 20 21 21 19 17 16 18 19 19 21 24 27 28 27 25 24 24 23 22 20 18 18 19 20 21 21 22
17 17 17 17 17 16 16 16 16 16 16 16 17 17 18 19 20 21 21 18 16 16 18 19 20 23 25 26 26 25 24 24 23 22 20 18 18 19 19 20 21 22
16 16 16 16 16 16 17 17 17 18 17 17 17 17 18 20 20 21 21 20 17 16 17 18 20 22 22 23 24 24 24 23 23 22 20 19 19 19 19 20 21 21
15 15 16 16 17 18 18 18 19 19 19 18 19 19 19 19 20 20 21 21 19 17 17 18 20 22 24 24 26 27 26 25 26 24 22 20 19 19 20 21 21 21
16 16 17 18 19 19 19 19 20 20 20 21 20 19 19 19 20 20 21 22 21 18 17 18 19 24 29 29 30 32 31 28 28 26 23 21 20 19 20 21 21 21
16 17 18 19 19 19 19 20 21 22 22 21 20 19 19 19 20 21 22 23 21 18 18 17 18 25 30 31 32 34 34 31 28 28 25 22 21 21 22 23 22 21
16 17 18 18 19 20 21 21 22 23 22 21 20 20 20 20 22 22 23 24 21 18 17 16 18 25 29 30 31 33 35 32 27 28 27 23 23 24 24 24 23 22
16 16 17 18 19 21 22 22 23 23 22 21 20 20 20 21 23 23 23 25 22 18 17 15 18 24 27 29 31 33 35 32 26 26 26 23 24 24 23 24 24 23
16 16 17 18 19 21 22 23 23 23 22 22 21 21 21 22 23 23 23 24 22 18 16 15 18 23 26 29 31 32 35 32 26 25 24 23 24 24 23 23 23 23
16 16 17 18 19 20 21 22 23 23 23 23 22 22 22 22 22 23 23 24 22 19 15 14 19 24 26 28 30 33 35 32 26 24 24 23 24 24 23 23 23 24
16 17 18 18 18 19 20 21 23 24 24 23 23 22 21 20 20 22 22 22 23 21 18 17 22 25 25 27 29 33 34 29 24 24 25 24 24 24 23 22 22 24
17 17 17 16 17 18 19 20 22 24 24 24 23 22 20 19 18 20 21 21 22 23 21 21 23 25 25 25 28 33 33 27 24 25 26 25 25 24 23 22 22 24
16 16 16 16 16 17 19 20 21 23 24 25 23 22 21 19 17 17 19 20 21 22 23 22 23 24 25 25 27 32 32 26 24 26 25 25 26 25 24 23 23 24
15 15 15 15 15 17 19 20 20 21 22 23 23 21 20 19 18 18 18 19 20 21 22 22 23 23 25 25 27 30 30 25 24 26 26 26 26 26 25 25 25 25
15 15 15 15 16 18 19 19 20 19 20 22 21 20 19 20 20 19 18 19 20 21 22 23 23 23 25 25 25 28 29 26 24 26 27 27 27 27 26 26 26 26
14 14 15 15 16 17 18 19 19 18 18 20 20 19 19 21 21 20 19 18 19 20 21 23 23 23 24 25 24 25 28 27 24 24 26 26 27 28 27 26 28 27

ECMWFNIL_925_spd_084.txt.gz
Wind_Speed
11 10 9 10 9 9 9 9 9 8 8 8 9 10 10 10 10 10 10 11 12 13 13 14 14 14 12 11 12 11 11 13 13 12 13 13 12 13 14 14 14 14
12 11 10 10 10 9 9 9 9 9 9 9 9 9 9 10 11 11 12 12 14 15 15 15 15 14 14 12 12 11 11 12 13 12 13 14 13 14 15 15 15 15
13 12 11 11 10 9 9 9 9 9 9 10 9 9 9 10 11 12 13 13 14 15 16 16 15 15 15 14 12 12 12 13 14 13 13 13 14 14 15 15 15 16
12 11 11 11 10 9 10 10 10 10 10 10 10 9 9 9 11 12 13 13 14 15 16 17 17 16 15 15 14 13 13 14 15 14 13 13 14 14 14 15 15 16
12 11 11 11 10 10 11 11 11 11 11 10 10 9 10 10 11 12 12 13 14 16 16 17 17 16 16 16 16 15 15 15 16 15 14 14 14 14 14 14 15 16
12 12 12 12 12 12 12 12 11 11 10 10 10 10 10 10 11 12 12 14 15 16 16 17 17 17 16 17 17 17 16 16 16 16 15 14 14 14 14 14 15 16
13 13 13 12 12 12 12 12 11 10 10 10 10 10 11 11 11 12 12 13 14 15 16 16 17 17 17 17 17 17 16 15 16 16 16 15 15 15 15 15 15 16
13 12 12 12 12 12 12 11 11 10 10 10 11 11 11 12 11 12 12 13 14 15 16 17 17 17 17 17 17 17 16 16 16 16 16 15 15 16 16 16 16 17
12 12 12 12 12 11 11 11 10 10 10 10 11 11 12 12 12 12 12 13 14 15 17 18 18 18 18 17 17 17 17 16 16 16 16 16 16 16 16 17 17 17
12 12 11 11 11 11 11 10 10 10 10 11 11 11 12 12 12 13 13 13 14 15 16 18 19 19 19 18 17 17 16 17 17 16 16 16 16 16 17 17 18 18
12 12 11 11 11 11 11 10 10 10 10 11 11 12 12 12 12 12 12 13 14 15 16 18 18 19 19 19 18 17 16 16 17 16 16 16 15 16 16 17 18 19
11 11 11 11 11 10 10 10 10 10 11 11 11 11 12 12 12 12 12 13 13 15 16 17 18 19 19 19 19 18 16 16 16 16 15 15 15 15 16 17 18 19
11 11 11 11 11 10 11 11 11 11 11 11 11 11 11 11 12 12 12 12 13 14 15 16 18 19 20 20 19 19 17 15 15 16 15 14 15 16 16 17 19 19
11 11 11 11 11 11 11 11 11 11 11 11 11 11 11 11 12 12 11 12 12 13 14 16 18 20 22 23 22 21 18 14 15 16 15 15 15 16 17 18 20 20
11 11 11 11 11 11 11 11 11 11 11 11 11 11 11 12 12 12 12 12 12 13 14 16 18 21 25 26 26 24 19 14 14 15 15 15 16 16 17 19 20 20
11 11 11 11 11 12 12 11 11 11 11 12 12 12 12 12 12 12 12 12 12 13 14 16 18 21 25 27 27 24 19 14 14 16 15 15 17 18 18 20 21 20
11 11 12 12 12 12 12 12 11 11 11 11 12 12 12 12 12 12 12 11 12 13 14 15 18 22 25 28 25 22 19 15 14 16 16 16 18 19 19 21 21 22
12 12 12 12 12 12 12 12 11 11 12 11 11 12 12 12 12 12 12 12 11 13 14 15 19 23 27 29 25 21 21 17 14 16 16 17 19 20 20 21 22 23
12 13 13 13 12 12 12 12 12 12 12 11 11 11 12 13 13 13 13 12 11 12 13 16 20 24 27 29 24 20 21 19 16 16 16 17 20 20 19 21 22 23
13 13 13 13 13 12 12 12 12 12 11 11 11 11 12 13 13 13 13 13 12 12 13 16 21 24 26 28 25 20 20 19 16 16 17 18 19 20 20 20 21 23
13 13 13 13 12 12 12 12 12 12 11 11 11 11 11 12 12 12 13 13 12 12 12 15 20 23 24 27 26 21 19 18 16 16 18 18 19 20 20 20 21 23
13 13 13 12 12 12 12 12 11 11 11 11 11 11 11 12 12 12 12 13 13 12 12 14 18 22 23 26 27 22 19 18 17 16 18 19 19 20 20 20 21 23
13 13 12 12 12 11 11 11 11 11 10 11 11 11 11 11 11 11 12 12 13 13 12 12 15 20 21 24 26 24 20 18 17 17 18 19 20 20 19 20 21 22
12 12 12 12 11 11 11 10 10 10 10 10 11 11 11 10 10 10 11 11 12 13 13 11 13 17 20 22 24 25 23 19 18 18 18 18 19 20 19 20 21 21
12 12 11 11 11 11 10 10 9 9 9 9 9 10 10 10 10 10 10 10 10 11 12 12 12 15 19 21 22 24 24 20 18 19 19 18 19 20 19 20 21 21
12 11 11 11 11 10 9 9 9 9 9 9 9 9 9 9 9 9 10 10 9 9 10 12 13 14 17 19 21 22 23 21 19 19 19 18 18 20 19 20 21 21